Vorticity
7 8 7 6 7 8 6 4 4 4 1 2 6 9 15 8 12 6 4 7 -0 1
7 9 10 7 4 5 5 4 3 4 8 8 8 14 11 3 4 3 -0 1 4 4
12 7 5 2 1 4 5 7 9 10 12 17 16 15 2 2 1 -1 2 2 3 5
0 3 6 9 8 9 13 18 19 20 11 11 9 6 3 6 3 4 1 2 5 5
5 6 9 11 14 15 15 11 6 7 7 7 1 5 4 3 2 6 5 8 5 4
9 12 15 12 14 9 7 5 10 13 3 -1 -1 -2 -1 1 4 6 -0 5 5 6
15 11 13 12 6 6 -0 3 9 15 3 2 -2 -3 -1 8 1 1 5 3 10 46
13 10 6 4 1 3 6 14 7 5 3 1 -3 4 8 2 3 5 4 52 59 57
6 5 5 4 7 9 16 12 4 5 -4 1 12 5 4 1 2 27 84 48 27 12
3 4 6 9 11 12 6 3 1 0 3 9 -1 2 3 4 59 66 29 18 9 7
2 7 9 12 12 5 1 3 5 4 8 -0 1 2 28 72 43 22 15 11 16 17
10 13 12 11 9 8 9 4 11 6 0 1 -0 18 68 32 15 17 8 8 4 13
11 6 7 8 11 10 15 -0 9 5 0 1 38 54 47 9 15 12 9 9 0 5
3 6 8 10 11 6 6 1 -1 -2 4 39 54 44 13 29 14 10 -2 -0 5 8
Height
5743 5743 5743 5742 5740 5738 5736 5735 5732 5730 5728 5727 5724 5722 5719 5715 5712 5710 5707 5704 5701 5698
5732 5732 5731 5730 5728 5725 5724 5722 5720 5718 5715 5712 5709 5706 5703 5700 5697 5695 5692 5688 5684 5680
5721 5720 5718 5716 5715 5713 5710 5709 5706 5703 5699 5697 5694 5691 5689 5686 5683 5680 5675 5671 5665 5659
5711 5710 5707 5705 5703 5700 5697 5695 5692 5688 5686 5683 5681 5678 5675 5671 5666 5662 5656 5649 5644 5638
5698 5696 5694 5692 5690 5687 5684 5680 5679 5676 5672 5669 5666 5663 5659 5653 5648 5644 5637 5629 5620 5612
5685 5682 5681 5680 5677 5675 5672 5670 5666 5663 5659 5655 5650 5645 5640 5634 5627 5618 5610 5603 5593 5582
5671 5670 5669 5667 5665 5662 5660 5656 5653 5648 5644 5639 5634 5627 5619 5611 5603 5594 5584 5575 5565 5556
5660 5659 5656 5655 5653 5650 5645 5641 5636 5631 5627 5622 5616 5608 5599 5591 5581 5571 5558 5549 5540 5533
5647 5645 5642 5640 5637 5634 5630 5625 5620 5616 5610 5603 5595 5586 5577 5568 5558 5546 5536 5529 5526 5524
5633 5629 5628 5625 5621 5616 5612 5608 5604 5598 5592 5584 5576 5567 5557 5546 5534 5526 5523 5520 5517 5515
5618 5615 5611 5608 5604 5600 5596 5592 5587 5581 5574 5568 5558 5546 5534 5524 5520 5517 5514 5512 5510 5507
5601 5598 5595 5590 5587 5584 5579 5575 5569 5564 5557 5547 5537 5527 5517 5513 5511 5508 5507 5506 5503 5500
5586 5583 5581 5577 5573 5568 5564 5558 5551 5544 5535 5526 5517 5509 5507 5505 5503 5501 5500 5499 5496 5493
5573 5569 5565 5561 5555 5550 5545 5539 5533 5528 5518 5508 5502 5498 5498 5496 5496 5495 5494 5492 5490 5486